sat.trackr.live / text

‹ back to catalog

STARLINK-37865

NORAD 69550 · 2026-135E

PAYLOAD ACTIVE UNKNOWN

§ Identity

Operator
Country
US
Launch date
2026-06-15
Launch site
AFWTR
Launch vehicle
Mass (kg)
RCS (m²)

Purposes: comms

External: N2YO · Heavens-Above · Gunter

§ Orbital elements

Epoch: 2026-09-20T00:27:17.961696Z

Period
93.91 min
Inclination
97.2852°
Eccentricity
0.0002007
Mean motion
15.33456270 rev/d
Perigee alt
464.1 km
Apogee alt
466.9 km
Semi-major
6,843.6 km
B*
3.6619e-4
RAAN
290.6674°
Arg perigee
104.6245°
Mean anomaly
255.5220°
Rev number
1,492

§ Raw data

STARLINK-378651 69550U 26135E   26263.01895789  .00011770  00000+0  36619-3 0  99912 69550  97.2852 290.6674 0002007 104.6245 255.5220 15.33456270 14928

JSON: /api/v1/satellites/69550 · /tle

For live sub-satellite position, see the globe view (requires WebGL).

§ Visibility from observer

Set your observer location to see the next 7 days of passes ≥ 10°. The values pass through the URL so the page stays shareable.

No JS? Fill the form by hand. The geolocation button needs JavaScript.